Content
SEND FEEDBACK

Daily
Averages
Monthly
Summary
French Polynesia

PAPEETE, FRENCH POLYNESIA


Home > Oceania > French Polynesia
Elevation: 7 feet     Latitude: 17 33S     Longitude: 149 36W

WEATHER
 
SELECT A DAY
Number of Records: 215,940;   Date Range: 6/30/96 - 11/22/14
 
SHARE

PRINT THIS DATA

[ ← Previous Day ]
WEATHER ALMANAC - OCTOBER 23, 2013
[ Next Day → ]
[ °C ]   °F
Weather ElementAverageHighLow
Temperature80.8 °F84.2 °F (10:00 am)75.2 °F (5:30 am)
Dewpoint73.1 °F75.2 °F (12:00 pm)71 °F (2:00 am)
Humidity77 %89 % (5:30 am)61 % (11:00 am)
Barometer29.82 in29.88 in (8:00 am)29.77 in (2:00 pm)
Wind Speed6.2 mph17.9 mph (8:00 pm)
Weather ElementAverage
Visibility7.6 mi
Wind DirectionESE (98.3 °)

Weather ElementTotal
Precipitation---
Cooling Degree Days14.7 (Base 65)
Growing Degree Days29.7 (Base 50)
Averaged from 55 records on October 23, 2013
WEATHER CONDITIONS BREAKOUT
WIND DIRECTION BREAKOUT
WEATHER BY HOUR - OCTOBER 23, 2013
[ °C ]   °F
Local TimeTemperatureDewpointHumidityBarometerVisibilityWind DirectionWind SpeedGust SpeedPrecipitationEventsConditions
12:30 AM77.0 °F71.6 °F83 %29.86 in6.2 miVariable3.5 mphMostly Cloudy
1:00 AM77.0 °F71.6 °F83 %29.83 in6.2 miESE (110°)1.2 mphMostly Cloudy
1:30 AM77.0 °F71.6 °F83 %29.83 in6.2 miCalmMostly Cloudy
2:00 AM77.0 °F71.0 °F77 %29.83 in12.0 miESE (110°)2.3 mphMostly Cloudy
2:00 AM77.0 °F71.6 °F83 %29.83 in6.2 miVariable2.3 mphMostly Cloudy
2:30 AM77.0 °F71.6 °F83 %29.83 in6.2 miVariable2.3 mphMostly Cloudy
3:00 AM77.0 °F71.6 °F83 %29.83 in6.2 miVariable2.3 mphMostly Cloudy
3:30 AM77.0 °F71.6 °F83 %29.80 in6.2 miEast (90°)3.5 mphOvercast
4:00 AM77.0 °F71.6 °F83 %29.80 in6.2 miEast (90°)2.3 mphScattered Clouds
4:30 AM77.0 °F71.6 °F83 %29.80 in6.2 miVariable2.3 mphPartly Cloudy
5:00 AM76.0 °F72.0 °F82 %29.83 in34.0 miCalmClear
5:00 AM77.0 °F71.6 °F83 %29.80 in6.2 miCalm
5:30 AM75.2 °F71.6 °F89 %29.83 in6.2 miSouth (190°)3.5 mph
6:00 AM77.0 °F71.6 °F83 %29.83 in6.2 miSSE (160°)3.5 mphMostly Cloudy
6:30 AM77.0 °F71.6 °F83 %29.83 in6.2 miSSE (160°)3.5 mphScattered Clouds
7:00 AM80.6 °F73.4 °F79 %29.86 in6.2 miSouth (190°)3.5 mphScattered Clouds
7:30 AM80.6 °F71.6 °F74 %29.86 in6.2 miSSW (200°)3.5 mphScattered Clouds
8:00 AM82.0 °F72.0 °F66 %29.88 in16.0 miSW (220°)6.9 mphPartly Cloudy
8:00 AM82.4 °F71.6 °F70 %29.86 in6.2 miSW (220°)6.9 mphScattered Clouds
8:30 AM82.4 °F71.6 °F70 %29.86 in6.2 miSW (230°)5.8 mphMostly Cloudy
9:00 AM82.4 °F71.6 °F70 %29.86 in6.2 miSW (230°)5.8 mphMostly Cloudy
9:30 AM82.4 °F71.6 °F70 %29.86 in6.2 miWest (270°)3.5 mphMostly Cloudy
10:00 AM84.2 °F73.4 °F70 %29.86 in6.2 miWest (270°)3.5 mphMostly Cloudy
10:34 AM84.2 °F73.4 °F70 %29.86 in6.2 miNNW (340°)3.5 mphMostly Cloudy
11:00 AM84.0 °F72.0 °F61 %29.85 in16.0 miNNW (330°)3.5 mphPartly Cloudy
11:00 AM84.2 °F73.4 °F70 %29.83 in6.2 miNW (320°)3.5 mphMostly Cloudy
11:30 AM84.2 °F73.4 °F70 %29.83 in6.2 miNNW (340°)5.8 mphMostly Cloudy
12:00 PM84.2 °F75.2 °F74 %29.83 in6.2 miNNE (30°)8.1 mphMostly Cloudy
12:30 PM84.2 °F73.4 °F70 %29.80 in6.2 miNNE (30°)9.2 mphMostly Cloudy
1:00 PM84.2 °F75.2 °F74 %29.80 in6.2 miNNE (30°)9.2 mphMostly Cloudy
1:30 PM84.2 °F75.2 °F74 %29.80 in6.2 miNNE (30°)8.1 mphMostly Cloudy
2:00 PM84.0 °F74.0 °F65 %29.79 in16.0 miNE (40°)9.2 mphScattered Clouds
2:00 PM84.2 °F75.2 °F74 %29.77 in6.2 miNE (40°)9.2 mphMostly Cloudy
2:30 PM84.2 °F75.2 °F74 %29.77 in6.2 miNNE (30°)11.5 mphMostly Cloudy
3:00 PM84.2 °F75.2 °F74 %29.77 in6.2 miNNE (30°)11.5 mphMostly Cloudy
3:30 PM84.2 °F75.2 °F74 %29.77 in6.2 miNE (50°)10.4 mphMostly Cloudy
4:00 PM84.2 °F73.4 °F70 %29.77 in6.2 miNNE (30°)10.4 mphMostly Cloudy
4:30 PM82.4 °F73.4 °F74 %29.77 in6.2 miNNE (30°)9.2 mphMostly Cloudy
5:00 PM82.0 °F74.0 °F70 %29.81 in11.0 miNNE (30°)8.1 mphMostly Cloudy
5:00 PM82.4 °F73.4 °F74 %29.80 in6.2 miNNE (30°)8.1 mphMostly Cloudy
5:30 PM80.6 °F73.4 °F79 %29.80 in6.2 miNE (40°)8.1 mphMostly Cloudy
6:00 PM80.6 °F75.2 °F84 %29.80 in6.2 miNE (40°)8.1 mphMostly Cloudy
6:30 PM80.6 °F75.2 °F84 %29.80 in6.2 miNE (40°)6.9 mphMostly Cloudy
7:00 PM80.6 °F75.2 °F84 %29.83 in6.2 miNE (40°)9.2 mphMostly Cloudy
7:30 PM80.6 °F73.4 °F79 %29.83 in6.2 miNE (50°)8.1 mphScattered Clouds
8:00 PM80.0 °F74.0 °F78 %29.84 in12.0 miENE (60°)17.9 mphPartly Cloudy
8:00 PM80.6 °F75.2 °F84 %29.83 in6.2 miENE (60°)9.2 mphScattered Clouds
8:30 PM80.6 °F73.4 °F79 %29.83 in6.2 miENE (60°)8.1 mphScattered Clouds
9:00 PM80.6 °F75.2 °F84 %29.83 in6.2 miNE (50°)8.1 mphScattered Clouds
9:30 PM80.6 °F75.2 °F84 %29.83 in6.2 miENE (60°)8.1 mphScattered Clouds
10:00 PM80.6 °F73.4 °F79 %29.83 in6.2 miENE (70°)8.1 mphScattered Clouds
10:30 PM80.6 °F73.4 °F79 %29.83 in6.2 miENE (70°)8.1 mphScattered Clouds
11:00 PM80.0 °F73.0 °F74 %29.83 in12.0 miENE (60°)8.1 mphScattered Clouds
11:00 PM80.6 °F73.4 °F79 %29.83 in6.2 miENE (60°)8.1 mphScattered Clouds
11:30 PM80.6 °F73.4 °F79 %29.80 in6.2 miNE (50°)6.9 mphScattered Clouds
Hourly data recorded from NTAA, located miles away from Papeete, French Polynesia







STORIES FROM OUR PARTNERS